[[{"header":{"parameterUnit":"m.s-1","parameterCategory":1,"la1":30.2991,"la2":30.254,"lo1":-89.0895,"lo2":-89.0444,"dy":0.0017,"dx":0.0017,"nx":28,"ny":28,"refTime":"2024-08-20T09:00:00:Z","depth":0,"parameterNumber":2,"parameterNumberName":"U-component_of_WINDS"},"data":[0,0,0,0,0,0,0,0,0,0,0,0,0,0,0,0,0,0,0,0,0,0,0,0,0,0,0,0,0,0,0,0,0,0,0,0,0,0,0,0,0,0,0,0,0,0,0,0,0,0,0,0,0,0,0,0,0,0,-0.9338,-0.9339,0,-0.9376,-0.9377,-0.9377,-0.9388,-0.9388,-0.9388,-0.9388,-0.9428,-0.9429,-0.943,0,0,0,0,0,0,0,0,0,0,0,0,0,-0.9278,-0.9279,-0.9338,-0.9339,-0.9339,-0.9376,-0.9377,-0.9377,-0.9388,-0.9388,-0.9388,-0.9388,-0.9428,-0.9429,-0.9431,0,0,0,0,0,0,0,0,0,0,0,0,0,-0.9309,-0.9279,-0.9338,-0.9349,-0.9351,-0.9376,-0.9377,-0.9377,-0.9388,-0.9388,-0.9388,-0.9388,-0.9427,-0.9429,-0.9431,-0.9448,0,0,-0.9436,-0.9437,0,0,0,0,0,0,0,0,-0.9307,-0.9311,-0.9347,-0.9349,-0.935,-0.9377,-0.937,-0.9401,-0.9389,-0.9374,-0.9388,-0.9387,-0.9411,-0.9415,-0.9422,-0.945,-0.9452,-0.9437,-0.9438,-0.9439,-0.9439,0,0,0,0,0,0,0,-0.9305,-0.9309,-0.9353,-0.9348,-0.935,-0.9353,-0.9357,-0.9376,-0.9394,-0.9375,-0.9376,-0.9381,-0.9412,-0.942,-0.9423,-0.9452,-0.9437,-0.9438,-0.9439,-0.944,-0.9497,-0.9498,0,0,0,0,0,0,-0.9301,-0.9307,-0.9352,-0.9355,-0.9327,-0.9354,-0.9359,-0.9369,-0.9394,-0.9397,-0.9381,-0.9381,-0.9417,-0.9421,-0.9425,-0.9448,-0.9439,-0.944,-0.9441,-0.9497,-0.9497,-0.9498,0,0,0,0,0,0,-0.9299,-0.9304,-0.9351,-0.9331,-0.9337,-0.9356,-0.9367,-0.937,-0.9378,-0.9398,-0.9401,-0.9386,-0.9417,-0.9422,-0.9442,-0.9449,-0.9441,-0.9443,-0.9496,-0.9497,-0.9498,-0.9493,0,0,0,0,0,0,-0.9297,-0.9304,-0.931,-0.9331,-0.9338,-0.9367,-0.9367,-0.9371,-0.9381,-0.9382,-0.9404,-0.9407,-0.9417,-0.944,-0.9444,-0.9452,-0.9444,-0.9496,-0.9497,-0.9497,-0.9492,-0.9493,-0.9494,0,0,0,0,0,-0.9295,-0.9307,-0.931,-0.9316,-0.9347,-0.9367,-0.9372,-0.9383,-0.9382,-0.9389,-0.9401,-0.9406,-0.9447,-0.9441,-0.9447,-0.9455,-0.9496,-0.9497,-0.9497,-0.9492,-0.9493,-0.9494,0,0,0,0,0,0,-0.9287,-0.931,-0.9314,-0.9333,-0.9348,-0.9369,-0.9378,-0.9383,-0.9399,-0.9399,-0.9413,-0.9418,-0.9438,-0.9448,-0.9441,-0.9473,-0.9472,-0.9474,-0.9466,-0.9467,-0.9467,-0.9465,-0.9446,0,0,0,0,0,-0.9287,-0.9302,-0.9322,-0.9337,-0.9344,-0.936,-0.9369,-0.9377,-0.9393,-0.94,-0.9414,-0.943,-0.9447,-0.9457,-0.9474,-0.9494,-0.9499,-0.9502,-0.9503,-0.9503,-0.9505,-0.9517,-0.9519,-0.9501,-0.9501,-0.9501,0,0,-0.9289,-0.9303,-0.9311,-0.9336,-0.9348,-0.9363,-0.9365,-0.9381,-0.9393,-0.9402,-0.9422,-0.9433,-0.9452,-0.9472,-0.9482,-0.9482,-0.9511,-0.9504,-0.9504,-0.9506,-0.9518,-0.952,-0.9521,-0.9501,-0.9501,-0.9501,0,0,-0.9299,-0.9311,-0.9325,-0.9337,-0.9356,-0.9366,-0.937,-0.939,-0.9398,-0.9418,-0.9426,-0.944,-0.9468,-0.9481,-0.9492,-0.9507,-0.9513,-0.9512,-0.9516,-0.9527,-0.9529,-0.953,-0.9536,-0.9538,-0.9514,-0.9514,-0.9514,0,-0.9298,-0.932,-0.9332,-0.9347,-0.9358,-0.9367,-0.9382,-0.9394,-0.9417,-0.9424,-0.9424,-0.946,-0.9473,-0.9497,-0.9501,-0.9508,-0.9513,-0.951,-0.9528,-0.9529,-0.953,-0.9536,-0.9539,-0.9514,-0.9514,-0.9514,-0.9514,0,-0.9319,-0.9334,-0.9344,-0.9366,-0.9378,-0.9393,-0.9407,-0.9418,-0.9424,-0.9435,-0.9456,-0.9472,-0.9492,-0.9498,-0.9505,-0.9524,-0.9523,-0.9525,-0.9523,-0.9532,-0.9538,-0.954,-0.9513,-0.9513,-0.9513,-0.9513,0,0,-0.9325,-0.9353,-0.9356,-0.9366,-0.9388,-0.94,-0.9416,-0.9436,-0.9445,-0.9461,-0.9475,-0.9499,-0.95,-0.9512,-0.9521,-0.9531,-0.9543,-0.9531,-0.9532,-0.9534,-0.9565,-0.9564,-0.9566,-0.9546,-0.9547,-0.9547,-0.9564,0,-0.9338,-0.9366,-0.9377,-0.94,-0.9415,-0.9424,-0.9438,-0.9453,-0.9464,-0.9479,-0.949,-0.9507,-0.9508,-0.9515,-0.9526,-0.9539,-0.9549,-0.9538,-0.956,-0.9561,-0.9556,-0.9569,-0.9568,-0.9583,-0.9566,-0.9566,-0.9567,0,-0.9357,-0.9372,-0.9397,-0.9417,-0.9424,-0.9436,-0.9455,-0.9469,-0.9486,-0.9493,-0.9507,-0.9514,-0.9532,-0.9529,-0.9555,-0.9547,-0.9556,-0.9564,-0.9565,-0.9568,-0.9565,-0.9573,-0.9588,-0.959,-0.957,-0.957,-0.957,0,-0.9359,-0.9387,-0.9405,-0.9414,-0.9437,-0.9446,-0.9456,-0.9473,-0.9484,-0.9501,-0.9509,-0.9527,-0.9537,-0.9552,-0.9565,-0.9562,-0.9589,-0.9587,-0.9596,-0.9596,-0.9602,-0.9601,-0.9619,-0.9607,-0.9607,-0.9607,-0.9607,0,-0.9373,-0.9388,-0.9407,-0.9418,-0.9435,-0.9448,-0.9465,-0.9476,-0.9491,-0.9506,-0.9514,-0.9528,-0.9544,-0.9559,-0.957,-0.9589,-0.9594,-0.96,-0.9603,-0.96,-0.9599,-0.9607,-0.9606,-0.9608,-0.9608,-0.9608,-0.9607,0,-0.9379,-0.9392,-0.9413,-0.9433,-0.9439,-0.9451,-0.9469,-0.9481,-0.9492,-0.951,-0.9515,-0.9532,-0.9551,-0.9565,-0.959,-0.9597,-0.9618,-0.962,-0.9612,-0.9613,-0.9622,-0.9621,-0.9645,-0.9649,-0.9634,-0.9634,-0.9634,0,-0.9387,-0.9398,-0.942,-0.943,-0.9441,-0.9457,-0.9468,-0.9481,-0.9493,-0.9514,-0.9523,-0.9543,-0.9559,-0.9589,-0.9604,-0.9623,-0.9626,-0.9634,-0.9629,-0.9626,-0.9627,-0.9627,-0.9628,-0.9634,-0.9634,-0.9634,-0.9635,0,-0.94,-0.9406,-0.9422,-0.944,-0.9453,-0.9468,-0.9483,-0.9491,-0.9507,-0.952,-0.9539,-0.9551,-0.9576,-0.9596,-0.9616,-0.9628,-0.9634,-0.9636,-0.9639,-0.9636,-0.9631,-0.9634,-0.9614,-0.9635,-0.9635,-0.9635,-0.9635,-0.9635,-0.9408,-0.9419,-0.9436,-0.9453,-0.9466,-0.948,-0.9492,-0.9505,-0.9521,-0.9542,-0.9549,-0.9569,-0.9587,-0.9615,-0.9627,-0.9643,-0.9643,-0.9648,-0.9649,-0.965,-0.965,-0.9628,-0.9647,-0.9647,-0.9647,-0.9647,-0.9647,0,-0.9422,-0.9433,-0.9449,-0.947,-0.9484,-0.9488,-0.9505,-0.9517,-0.9534,-0.955,-0.9566,-0.9588,-0.9607,-0.9624,-0.9644,-0.9654,-0.9657,-0.9659,-0.9659,-0.9661,-0.9649,-0.9644,-0.9656,-0.9656,-0.9656,-0.9656,-0.9656,-0.9656,-0.9431,-0.945,-0.9458,-0.9484,-0.9495,-0.9515,-0.9524,-0.9538,-0.9551,-0.9575,-0.9591,-0.9601,-0.9618,-0.9639,-0.9657,-0.9662,-0.9669,-0.967,-0.9675,-0.9663,-0.9662,-0.9661,-0.9657,-0.9671,-0.9671,-0.9686,-0.9686,-0.9687]},{"header":{"parameterUnit":"m.s-1","parameterCategory":1,"la1":30.2991,"la2":30.254,"lo1":-89.0895,"lo2":-89.0444,"dy":0.0017,"dx":0.0017,"nx":28,"ny":28,"refTime":"2024-08-20T09:00:00:Z","depth":0,"parameterNumber":3,"parameterNumberName":"V-component_of_WINDS"},"data":[0,0,0,0,0,0,0,0,0,0,0,0,0,0,0,0,0,0,0,0,0,0,0,0,0,0,0,0,0,0,0,0,0,0,0,0,0,0,0,0,0,0,0,0,0,0,0,0,0,0,0,0,0,0,0,0,0,0,-2.5672,-2.5672,0,-2.5705,-2.5705,-2.5705,-2.5682,-2.5681,-2.568,-2.5679,-2.5709,-2.5711,-2.5713,0,0,0,0,0,0,0,0,0,0,0,0,0,-2.5585,-2.5587,-2.5672,-2.5672,-2.5673,-2.5705,-2.5705,-2.5706,-2.5682,-2.5681,-2.568,-2.5679,-2.5709,-2.5711,-2.5713,0,0,0,0,0,0,0,0,0,0,0,0,0,-2.5621,-2.5587,-2.5672,-2.5665,-2.5665,-2.5705,-2.5705,-2.5706,-2.5683,-2.5681,-2.568,-2.5678,-2.5708,-2.5711,-2.5713,-2.576,0,0,-2.5721,-2.5722,0,0,0,0,0,0,0,0,-2.5619,-2.5624,-2.5666,-2.5666,-2.5665,-2.5688,-2.5685,-2.5724,-2.5683,-2.5676,-2.5679,-2.5677,-2.5703,-2.5706,-2.5716,-2.5762,-2.5763,-2.5721,-2.5723,-2.5724,-2.5725,0,0,0,0,0,0,0,-2.5616,-2.5622,-2.5685,-2.5666,-2.5666,-2.5659,-2.5662,-2.5693,-2.5698,-2.5676,-2.5675,-2.5679,-2.5703,-2.5713,-2.5716,-2.5763,-2.5721,-2.5724,-2.5725,-2.5726,-2.585,-2.5851,0,0,0,0,0,0,-2.5615,-2.562,-2.5684,-2.5686,-2.5638,-2.5662,-2.5666,-2.5682,-2.5697,-2.5698,-2.568,-2.5678,-2.5709,-2.5713,-2.5717,-2.5773,-2.5724,-2.5727,-2.5728,-2.5848,-2.585,-2.5852,0,0,0,0,0,0,-2.5613,-2.5621,-2.5682,-2.5653,-2.566,-2.5665,-2.5684,-2.5684,-2.5694,-2.57,-2.5701,-2.569,-2.5708,-2.5713,-2.575,-2.5774,-2.5728,-2.573,-2.5846,-2.5849,-2.5851,-2.5886,0,0,0,0,0,0,-2.5611,-2.562,-2.5639,-2.5653,-2.5662,-2.5716,-2.5685,-2.5685,-2.5699,-2.5696,-2.571,-2.571,-2.5707,-2.5746,-2.5753,-2.5777,-2.5732,-2.5844,-2.5847,-2.585,-2.5883,-2.589,-2.5896,0,0,0,0,0,-2.5608,-2.5647,-2.564,-2.5648,-2.5686,-2.5717,-2.5722,-2.5719,-2.5701,-2.5719,-2.5724,-2.571,-2.577,-2.575,-2.5757,-2.5783,-2.5842,-2.5846,-2.585,-2.588,-2.5888,-2.5895,0,0,0,0,0,0,-2.5634,-2.5649,-2.5641,-2.5687,-2.5701,-2.5713,-2.5737,-2.5727,-2.5746,-2.5743,-2.5736,-2.574,-2.5778,-2.5784,-2.5761,-2.5829,-2.5803,-2.5809,-2.5824,-2.5832,-2.5838,-2.5836,-2.5734,0,0,0,0,0,-2.5645,-2.5671,-2.5682,-2.5721,-2.5728,-2.5731,-2.5745,-2.5741,-2.5756,-2.5761,-2.5768,-2.5781,-2.5803,-2.5818,-2.5838,-2.5884,-2.5886,-2.5904,-2.5911,-2.5916,-2.5921,-2.5945,-2.5953,-2.5864,-2.5864,-2.5864,0,0,-2.5668,-2.5679,-2.5696,-2.5726,-2.5737,-2.5763,-2.5737,-2.5765,-2.5784,-2.5765,-2.5801,-2.5806,-2.582,-2.5862,-2.588,-2.5867,-2.5946,-2.5921,-2.5925,-2.5927,-2.595,-2.5958,-2.5966,-2.5867,-2.5866,-2.5866,0,0,-2.5724,-2.5735,-2.5769,-2.5781,-2.5798,-2.5799,-2.5808,-2.5821,-2.5825,-2.5861,-2.5847,-2.5869,-2.5907,-2.5918,-2.5928,-2.5988,-2.5976,-2.5994,-2.6027,-2.6051,-2.6058,-2.6064,-2.6086,-2.6094,-2.5999,-2.5999,-2.5999,0,-2.575,-2.579,-2.5787,-2.5817,-2.583,-2.5816,-2.5849,-2.586,-2.5883,-2.5892,-2.5878,-2.5925,-2.5934,-2.5978,-2.5992,-2.6001,-2.601,-2.5993,-2.6058,-2.6064,-2.6069,-2.609,-2.6098,-2.6001,-2.6001,-2.6001,-2.6001,0,-2.5821,-2.5849,-2.5874,-2.5898,-2.5914,-2.5945,-2.5946,-2.5963,-2.5958,-2.596,-2.5997,-2.6007,-2.6029,-2.6039,-2.6033,-2.6082,-2.6074,-2.6059,-2.6033,-2.608,-2.6099,-2.6107,-2.6005,-2.6004,-2.6003,-2.6003,0,0,-2.5894,-2.5917,-2.5926,-2.5937,-2.5955,-2.5975,-2.6006,-2.6029,-2.6043,-2.6059,-2.6084,-2.6116,-2.6103,-2.6115,-2.611,-2.6131,-2.6178,-2.6114,-2.6114,-2.6126,-2.6232,-2.6244,-2.6253,-2.6171,-2.6172,-2.6173,-2.6231,0,-2.5951,-2.6006,-2.6004,-2.6055,-2.608,-2.6067,-2.6093,-2.6107,-2.611,-2.6131,-2.6134,-2.6157,-2.6138,-2.6145,-2.6165,-2.6169,-2.62,-2.6164,-2.6193,-2.6194,-2.6191,-2.6263,-2.6275,-2.6329,-2.6239,-2.624,-2.6241,0,-2.6025,-2.6045,-2.6099,-2.6113,-2.6124,-2.6148,-2.6169,-2.619,-2.6204,-2.6205,-2.6219,-2.6211,-2.624,-2.6214,-2.6254,-2.623,-2.6242,-2.6245,-2.6247,-2.625,-2.6221,-2.6268,-2.6346,-2.6355,-2.6252,-2.6251,-2.6251,0,-2.6073,-2.6113,-2.6151,-2.616,-2.6178,-2.6195,-2.6203,-2.6216,-2.6231,-2.6248,-2.6257,-2.6278,-2.6289,-2.6305,-2.6303,-2.6284,-2.6344,-2.6317,-2.6345,-2.6345,-2.6359,-2.6358,-2.6441,-2.6366,-2.6365,-2.6365,-2.6365,0,-2.6137,-2.617,-2.6173,-2.6196,-2.6233,-2.623,-2.6266,-2.6272,-2.6283,-2.6306,-2.6295,-2.6317,-2.6312,-2.6334,-2.6332,-2.6366,-2.6371,-2.6372,-2.6371,-2.6373,-2.6373,-2.6381,-2.6377,-2.6367,-2.6367,-2.6366,-2.6366,0,-2.6197,-2.62,-2.624,-2.6255,-2.6259,-2.6285,-2.6297,-2.6318,-2.632,-2.635,-2.6356,-2.636,-2.6384,-2.6384,-2.6411,-2.641,-2.6451,-2.6446,-2.6447,-2.6446,-2.6474,-2.6472,-2.6565,-2.6577,-2.6494,-2.6495,-2.6495,0,-2.6238,-2.6264,-2.6281,-2.6297,-2.6306,-2.6331,-2.6346,-2.6343,-2.6359,-2.6377,-2.6396,-2.642,-2.6439,-2.6478,-2.6483,-2.6503,-2.6498,-2.653,-2.6501,-2.6503,-2.6499,-2.6498,-2.65,-2.6535,-2.6536,-2.6537,-2.6538,0,-2.631,-2.6311,-2.6333,-2.6357,-2.6375,-2.6393,-2.6409,-2.6422,-2.6421,-2.6439,-2.6465,-2.648,-2.6508,-2.6531,-2.6552,-2.6558,-2.6548,-2.6547,-2.6554,-2.6557,-2.6557,-2.6557,-2.6463,-2.6544,-2.6544,-2.6543,-2.6543,-2.6543,-2.6362,-2.6385,-2.6401,-2.6426,-2.6438,-2.6454,-2.6475,-2.6481,-2.6503,-2.6527,-2.6523,-2.6552,-2.6565,-2.6591,-2.66,-2.6621,-2.661,-2.6621,-2.6624,-2.6627,-2.663,-2.6553,-2.6625,-2.6625,-2.6624,-2.6624,-2.6624,0,-2.6434,-2.6444,-2.6467,-2.6492,-2.6511,-2.6501,-2.6519,-2.6536,-2.6561,-2.6575,-2.6595,-2.6624,-2.6647,-2.6653,-2.6675,-2.6691,-2.6686,-2.6696,-2.6695,-2.6697,-2.6639,-2.663,-2.6699,-2.6699,-2.6699,-2.6699,-2.6699,-2.6699,-2.6474,-2.6511,-2.6514,-2.6557,-2.6566,-2.6595,-2.6606,-2.662,-2.6631,-2.6665,-2.6685,-2.6689,-2.6699,-2.6722,-2.6742,-2.6743,-2.6752,-2.6764,-2.6763,-2.6708,-2.6701,-2.6694,-2.6686,-2.6766,-2.6766,-2.6819,-2.682,-2.682]}]]